User: anonymous   Login
Location: Munkebjergskolens Observatorium
(55.3864°N, 10.3987°E)
Time: 23:45:04
(UTC+01:00)
Language:

ESTCUBE 1 - Orbit

View from above orbital plane
View from above orbital plane
View from above satellite
View from above satellite

Ground track
Ground track

The orbit data is extracted from the following two-line orbital elements,

1 39161U 13021C   24052.73951643  .00002196  00000-0  32889-3 0  9999
2 39161  97.8425 122.7549 0007943 242.1457 117.8948 14.75624302579952
Epoch (UTC): 21 February 2024 17:44:54
Eccentricity: 0.0007943
inclination: 97.8425°
perigee height: 637 km
apogee height: 649 km
right ascension of ascending node: 122.7549°
argument of perigee: 242.1457°
revolutions per day: 14.75624302
mean anomaly at epoch: 117.8948°
orbit number at epoch: 57995

The dashed part of the orbit path shows where the satellite is in the earth's shadow,  

DLR